Location: Unspecified
(35.7250°N, 0.0000°E)
Time: 17:20:41
(UTC+00:00)

Explorer 7 - Pass Details

Date: 18 June 2019
Orbit: 485 x 680 km, 50.3° (Epoch: 17 July)

Event Time Altitude Azimuth Distance (km) Brightness Sun altitude
Rises 15:02:47 0° 315° (NW) 2,994 10.9 49.0°
Reaches altitude 10° 15:05:28 10° 328° (NNW) 2,099 10.2 48.5°
Maximum altitude 15:09:34 26° 25° (NNE) 1,318 8.8 47.7°
Drops below altitude 10° 15:13:41 10° 82° (E) 2,114 9.5 46.8°
Sets 15:16:23 0° 95° (E) 3,020 10.2 46.3°
